Chetumal, Mexico

8:21 PM on February 19, 2018 (GMT +0000)
Chetumal International

Weather History for MMCM - September, 2013

Change the Weather History Date:

Tuesday, September 3, 2013

  Actual Average Record
Temperature  
Mean Temperature 83 °F -  
Max Temperature 91 °F 86 °F 96 °F (2015)
Min Temperature 75 °F 76 °F 64 °F (1998)
Cooling Degree Days 18    
Growing Degree Days 33 (Base 50)    
Moisture  
Dew Point 72 °F    
Average Humidity 77    
Maximum Humidity 95    
Minimum Humidity 55    
Precipitation  
Precipitation 0.47 in - - ()
Sea Level Pressure  
Sea Level Pressure 29.89 in    
Wind  
Wind Speed 5 mph ()    
Max Wind Speed 14 mph    
Max Gust Speed -    
Visibility 6.0 miles    
Events Rain    
Averages and records for this station are not official NWS values.
T = Trace of Precipitation, MM = Missing Value Source: Averaged Metar Reports

Daily Weather History Graph

Daily Weather History Graph

Search for Another Location

Airport or City:

Trip Planner

Search our weather history database for the weather conditions in past years. The results will help you decide how hot, cold, wet, or windy it might be!

Date:

Astronomy

Sep. 03, 2013 Rise Set
Actual Time 6:39 AM CDT 7:05 PM CDT
Civil Twilight 6:16 AM CDT 7:27 PM CDT
Nautical Twilight 5:51 AM CDT 7:53 PM CDT
Astronomical Twilight 5:25 AM CDT 8:19 PM CDT
Moon 5:00 AM CDT (9/3) 5:49 PM CDT (9/3)
Length of Visible Light 13h 10m
Length of Day
12h 26m
Waning Crescent, 3% of the Moon is Illuminated
Sep 3
Waning Crescent
Sep 5
New
Sep 12
First Quarter
Sep 19
Full
Sep 26
Last Quarter

Hourly Weather History & Observations

Time (CDT) Temp. Heat Index Dew Point Humidity Pressure Visibility Wind Dir Wind Speed Gust Speed Precip Events Conditions
12:45 AM 78 °F - 75 °F 88% 29.92 in 5 mi WNW 2.2 mph - -   Scattered Clouds
3:45 AM 76 °F - 75 °F 94% 29.86 in 5 mi North 2.2 mph - -   Scattered Clouds
6:45 AM 77.0 °F - 68.0 °F 74% 29.90 in 7.0 mi East 9.2 mph - N/A   Overcast
6:50 AM 77 °F - 75 °F 91% 29.91 in 6 mi East 6.7 mph - -   Partly Cloudy
7:45 AM 77.0 °F - 68.0 °F 74% 29.89 in 7.0 mi East 6.9 mph - N/A   Overcast
8:40 AM 78.8 °F - 69.8 °F 74% 29.90 in 7.0 mi East 9.2 mph - N/A   Overcast
9:40 AM 80.6 °F 84.6 °F 71.6 °F 74% 29.93 in 7.0 mi East 9.2 mph - N/A   Overcast
9:50 AM 83 °F - 74 °F 66% 29.94 in 6 mi East 6.7 mph - -   Scattered Clouds
10:40 AM 86.0 °F 95.1 °F 75.2 °F 70% 29.93 in 7.0 mi East 11.5 mph - N/A   Mostly Cloudy
11:40 AM 86.0 °F 95.1 °F 75.2 °F 70% 29.90 in 7.0 mi East 9.2 mph - N/A   Mostly Cloudy
12:40 PM 84.2 °F 92.3 °F 75.2 °F 74% 29.90 in 7.0 mi East 9.2 mph - N/A   Overcast
12:50 PM 89 °F - 75 °F 55% 29.91 in 6 mi East 6.7 mph - -   Overcast
1:43 PM 82.4 °F 88.2 °F 73.4 °F 74% 29.88 in 7.0 mi East 9.2 mph - N/A   Overcast
2:08 PM 78.8 °F - 71.6 °F 78% 29.87 in 1.0 mi East 13.8 mph - N/A Rain Heavy Rain
2:40 PM 77.0 °F - 68.0 °F 74% 29.87 in 4.0 mi Calm Calm - N/A Rain Light Rain
3:40 PM 77.0 °F - 68.0 °F 74% 29.84 in 5.0 mi Calm Calm - N/A Rain Light Rain
5:40 PM 77.0 °F - 68.0 °F 74% 29.84 in 7.0 mi Calm Calm - N/A   Overcast
6:40 PM 77.0 °F - 68.0 °F 74% 29.83 in 7.0 mi Calm Calm - N/A   Overcast
6:50 PM 79 °F - 76 °F 87% 29.85 in 6 mi NNW 2.2 mph - - Rain Light Drizzle
9:45 PM 77 °F - 76 °F 95% 29.91 in 5 mi East 2.2 mph - -   Partly Cloudy